STARLINK-34139, 63975

Orbit data source: Space-Track

STARLINK-34139, 63975 is a payload satellite owned by SpaceX/Seattle (US) in LEO that was launched on Tue, 13 May 2025 UTC via an FALCON 9 launch vehicle from the Air Force Eastern Test Range (AFETR). Payload-class satellites include a variety of spacecraft equipped with specific instruments for various scientific and technological missions. These include communications satellites like Starlink; space stations such as the ISS; scientific satellites like the Hubble; Earth observation satellites from companies like Planet Labs, Umbra, and HawkEye 360; GPS; miniature CubeSats for education and research; and military/defense satellites.

Loading next visibility...
Identifier
63975, 2025-099Z
Orbit
LEO
Country
Flag of USUS
Related business
Manufacturer
SpaceX/Seattle
Mission
Operational Commercial Communications
Bus & Motor
STARLINK V2MO, Unknown motor
Mass
575 kg wet, ~530 kg dry
Launch date (UTC)
2025-05-13 (11 months ago)
Launch vehicle
FALCON 9
Launch site
Air Force Eastern Test Range (AFETR)
Object type
Payload
Rocket body
Debris
Shape & HBR
Box + 2 Pan, 17.7 m
Radar Cross Section
36.964 m², Large (>1 m²)

Expand to show TLE details & history
Last TLE update: 15 hours ago

TLE from 15 hours ago
0 STARLINK-34139
1 63975U 25099Z   26093.85551544  .00035364  00000-0  12876-2 0  9999
2 63975  43.0086  30.7499 0007439 291.2878  68.7179 15.27580048 51133
Epoch: 2026-04-03T20:31Z
TLE epoch observation values (Epoch: 2026-04-03T20:31:56.534Z)
Latitude
-0.00001°
Longitude
-109.41933°
Altitude
480.976 km
Speed
7.628 km/s
True Right ascension
02h 02m 59s
True Declination
0° 00' 00"
Sunlit
Object was in daylight at epoch
Visualization orbit readout
Latitude
Unknown
Longitude
Unknown
Altitude
Unknown
Speed
Unknown
Apparent Right ascension
Unknown
Apparent Declination
Unknown
Sunlit
N/A
Visualization observer readout
Local Sidereal Time
17:27:37
Azimuth
Unknown
Elevation
Unknown
Doppler factor
Unknown
Orbital elements
Apogee altitude
490.098 km
Perigee altitude
479.887 km
Semi-major axis
6,863.13 km
Eccentricity
0.00074
Inclination
43.0086°
RAAN
30.7499°
Arg. of periapsis
291.2878°
True anomaly
68.79736°
Mean anomaly
68.7179°
Eccentric anomaly
68.75763°
Mean motion
3.81733 °/min
Orbital period
94.31 mins
BSTAR
0.0012876
Loading maneuver chart data...
Computing Atmospheric mass density...
Loading historical data...
Loading historical data...
Loading historical data...
Loading historical data...
Loading historical data...
Loading historical data...
Loading historical data...

Documentation

Showing up to 5 results
|